Weather reports worldwide

Advertisment
Sibenik, Croatia (14438): temperature & dewpoint: 09.12.2019 19:00:00 - 15.12.2019 19:00:00 (CET)Sibenik, Croatia (14438): water temperature: 09.12.2019 19:00:00 - 15.12.2019 19:00:00 (CET)Sibenik, Croatia (14438): wind speed & gusts: 09.12.2019 19:00:00 - 15.12.2019 19:00:00 (CET)Sibenik, Croatia (14438): wind direction: 09.12.2019 19:00:00 - 15.12.2019 19:00:00 (CET)Sibenik, Croatia (14438): reduced air pressure: 09.12.2019 19:00:00 - 15.12.2019 19:00:00 (CET)Sibenik, Croatia (14438): visibility: 09.12.2019 19:00:00 - 15.12.2019 19:00:00 (CET)
Date & Time tt [°C] td [°C] tw [°C] ff [km/h] ff [kn] fx [km/h] fx [kn] dd ppp [hPa] vv [km]
15.12.2019 19:00:00 13,1 8,3 - 7 4 - - ESE 1018,1 40
15.12.2019 18:00:00 13,3 6,2 - 7 4 - - ESE 1018,4 -
15.12.2019 17:00:00 14,0 4,9 - 11 6 - - E 1017,9 -
15.12.2019 16:00:00 15,6 3,1 - 11 6 - - E 1017,7 -
15.12.2019 15:00:00 17,0 3,0 - 7 4 - - E 1017,1 -
15.12.2019 14:00:00 16,7 3,9 17,0 14 8 - - ENE 1016,0 45
15.12.2019 13:00:00 17,0 5,1 - 11 6 - - ESE 1016,3 40
15.12.2019 12:00:00 16,5 4,9 - 7 4 - - SSE 1016,8 45
15.12.2019 11:00:00 14,5 6,0 - 4 2 - - E 1016,9 45
15.12.2019 10:00:00 11,6 4,3 - 7 4 - - E 1016,6 45
15.12.2019 09:00:00 7,1 2,5 - 4 2 - - W 1016,0 45
15.12.2019 08:00:00 6,3 2,3 - 0 0 - - N 1015,4 50
15.12.2019 07:00:00 6,4 1,4 17,0 4 2 - - SSE 1014,7 50
15.12.2019 06:00:00 5,5 1,9 - 4 2 - - NNW 1014,4 30
15.12.2019 05:00:00 7,2 0,0 - 0 0 - - N 1014,0 30
15.12.2019 04:00:00 5,0 2,5 - 0 0 - - N 1013,6 30
15.12.2019 03:00:00 - - - - - - - - - -
15.12.2019 02:00:00 - - - - - - - - - -
15.12.2019 01:00:00 6,2 3,4 - 4 2 - - NNE 1013,5 -
15.12.2019 00:00:00 - - - - - - - - - -
14.12.2019 23:00:00 - - - - - - - - - -
14.12.2019 22:00:00 7,4 3,1 - 4 2 - - N 1011,4 -
14.12.2019 21:00:00 7,7 5,2 - 0 0 - - N 1010,8 30
14.12.2019 20:00:00 9,1 4,4 - 4 2 - - ENE 1009,7 30
14.12.2019 19:00:00 8,3 5,9 - 7 4 - - N 1008,4 30
14.12.2019 18:00:00 8,6 4,5 - 11 6 - - N 1007,9 -
14.12.2019 17:00:00 9,7 5,0 - 7 4 - - NNW 1007,0 -
14.12.2019 16:00:00 12,8 4,6 - 7 4 - - W 1005,7 -
14.12.2019 15:00:00 14,1 3,3 - 11 6 - - WSW 1004,1 -
14.12.2019 14:00:00 13,3 2,3 17,0 11 6 - - WNW 1002,7 40
14.12.2019 13:00:00 13,0 2,2 - 14 8 - - WNW 1001,6 40
14.12.2019 12:00:00 12,0 2,6 - 14 8 - - N 1001,5 40
14.12.2019 11:00:00 11,0 2,6 - 22 12 - - NNW 1001,3 40
14.12.2019 10:00:00 9,6 2,3 - 29 16 - - N 999,7 40
14.12.2019 09:00:00 8,2 1,6 - 22 12 - - N 998,0 40
14.12.2019 08:00:00 6,6 0,7 - 29 16 - - NNW 997,1 40
14.12.2019 07:00:00 6,5 0,8 17,0 25 14 - - NNW 994,7 30
14.12.2019 06:00:00 6,3 0,6 - 22 12 - - NNW 992,6 20
14.12.2019 05:00:00 6,1 0,9 - 14 8 - - NNW 991,2 20
14.12.2019 04:00:00 6,6 0,7 - 25 14 - - NNW 989,0 20
14.12.2019 03:00:00 - - - - - - - - - -
14.12.2019 02:00:00 - - - - - - - - - -
14.12.2019 01:00:00 9,2 8,8 - 4 2 - - WNW 984,5 -
14.12.2019 00:00:00 - - - - - - - - - -
13.12.2019 23:00:00 - - - - - - - - - -
13.12.2019 22:00:00 10,0 9,3 - 11 6 - - WNW 982,3 -
13.12.2019 21:00:00 11,5 10,8 - 22 12 - - E 981,0 6
13.12.2019 20:00:00 11,2 10,6 - 25 14 - - E 981,5 4,0
13.12.2019 19:00:00 10,7 9,0 - 32 18 - - E 982,6 4,0
13.12.2019 18:00:00 10,3 8,1 - 40 21 - - E 983,9 -
13.12.2019 17:00:00 10,0 7,1 - 36 19 - - E 985,7 -
13.12.2019 16:00:00 10,7 4,4 - 36 19 - - E 988,0 -
13.12.2019 15:00:00 11,2 6,2 - - - - - - 989,4 -
13.12.2019 14:00:00 11,4 5,7 16,0 29 16 - - E 991,0 40
13.12.2019 13:00:00 10,6 5,0 - 22 12 - - ESE 993,1 25
13.12.2019 12:00:00 10,7 4,9 - 22 12 - - ESE 994,6 35
13.12.2019 11:00:00 9,9 4,9 - 14 8 - - E 996,5 40
13.12.2019 10:00:00 8,2 4,5 - 18 10 - - ENE 998,2 45
13.12.2019 09:00:00 7,4 4,0 - 14 8 - - ENE 998,8 45
13.12.2019 08:00:00 6,2 3,9 - 14 8 - - ENE 999,2 45
13.12.2019 07:00:00 6,1 3,8 17,0 11 6 - - ENE 999,5 40
13.12.2019 06:00:00 5,8 4,3 - 11 6 - - ENE 999,5 30
13.12.2019 05:00:00 6,5 4,6 - 4 2 - - ENE 1000,2 30
13.12.2019 04:00:00 6,6 5,1 - 0 0 - - N 1000,5 30
13.12.2019 03:00:00 - - - - - - - - - -
13.12.2019 02:00:00 - - - - - - - - - -
13.12.2019 01:00:00 6,6 5,3 - 0 0 - - N 1001,3 -
13.12.2019 00:00:00 - - - - - - - - - -
12.12.2019 23:00:00 - - - - - - - - - -
12.12.2019 22:00:00 8,0 3,7 - 4 2 - - E 1002,0 -
12.12.2019 21:00:00 7,7 4,2 - 4 2 - - NNE 1002,6 30
12.12.2019 20:00:00 7,7 4,1 - 4 2 - - N 1016,0 30
12.12.2019 19:00:00 8,1 3,7 - 4 2 - - NNE 1002,3 30
12.12.2019 18:00:00 8,1 2,8 - 11 6 - - N 1002,8 -
12.12.2019 17:00:00 8,4 3,5 - 11 6 - - N 1002,7 -
12.12.2019 16:00:00 8,7 3,4 - 11 6 - - N 1002,9 -
12.12.2019 15:00:00 10,1 3,7 - 4 2 - - S 1002,8 -
12.12.2019 14:00:00 9,9 4,2 16,0 11 6 - - NNE 1003,1 35
12.12.2019 13:00:00 9,7 4,4 - 14 8 - - N 1003,9 45
12.12.2019 12:00:00 9,9 4,6 - 11 6 - - N 1004,5 45
12.12.2019 11:00:00 9,2 4,0 - 4 2 - - WSW 1004,8 45
12.12.2019 10:00:00 8,2 2,8 - 4 2 - - S 1005,1 45
12.12.2019 09:00:00 6,6 1,9 - 4 2 - - NNE 1005,6 40
12.12.2019 08:00:00 6,2 2,5 - 0 0 - - N 1005,7 40
12.12.2019 07:00:00 6,7 1,8 18,0 0 0 - - N 1005,3 35
12.12.2019 06:00:00 6,6 1,7 - 4 2 - - NNE 1005,4 30
12.12.2019 05:00:00 6,4 2,0 - 0 0 - - N 1005,4 30
12.12.2019 04:00:00 6,0 1,2 - 0 0 - - N 1005,5 30
12.12.2019 03:00:00 - - - - - - - - - -
12.12.2019 02:00:00 - - - - - - - - - -
12.12.2019 01:00:00 5,1 -1,1 - 11 6 - - N 1007,7 -
12.12.2019 00:00:00 - - - - - - - - - -
11.12.2019 23:00:00 - - - - - - - - - -
11.12.2019 22:00:00 6,1 -1,3 - 4 2 - - N 1008,6 -
11.12.2019 21:00:00 6,5 -1,1 - 22 12 - - NNE 1008,7 40
11.12.2019 20:00:00 6,2 -1,0 - 29 16 - - N 1008,9 40
11.12.2019 19:00:00 7,0 -1,1 - 32 18 - - N 1009,1 40
11.12.2019 18:00:00 7,6 -1,3 - 32 18 - - N 1009,6 -
11.12.2019 17:00:00 8,5 -1,0 - 29 16 - - N 1009,6 -
11.12.2019 16:00:00 10,4 -0,7 - 25 14 - - N 1009,6 -
11.12.2019 15:00:00 11,7 -0,4 - 22 12 - - NNW 1009,8 -
11.12.2019 14:00:00 12,2 0,7 15,5 18 10 - - N 1009,8 45
11.12.2019 13:00:00 11,9 0,2 - 14 8 - - N 1010,8 45
11.12.2019 12:00:00 10,9 -0,4 - 22 12 - - N 1011,6 45
11.12.2019 11:00:00 10,1 -0,6 - 22 12 - - N 1012,8 45
11.12.2019 10:00:00 8,3 -1,7 - 29 16 - - N 1013,6 45
11.12.2019 09:00:00 7,3 -2,5 - 25 14 - - N 1013,5 45
11.12.2019 08:00:00 6,1 -2,9 - 22 12 - - NNW 1013,7 45
11.12.2019 07:00:00 6,1 -3,6 15,0 32 18 - - N 1014,0 40
11.12.2019 06:00:00 5,9 -3,9 - 32 18 - - N 1013,9 30
11.12.2019 05:00:00 6,0 -4,1 - 36 19 68 37 N 1014,1 30
11.12.2019 04:00:00 6,0 -4,1 - 32 18 - - N 1014,3 30
11.12.2019 03:00:00 - - - - - - - - - -
11.12.2019 02:00:00 - - - - - - - - - -
11.12.2019 01:00:00 6,8 -5,8 - 32 18 - - N 1016,2 -
11.12.2019 00:00:00 - - - - - - - - - -
10.12.2019 23:00:00 - - - - - - - - - -
10.12.2019 22:00:00 7,5 -4,9 - 43 23 - - NNW 1015,8 -
10.12.2019 21:00:00 7,7 -2,6 - 43 23 101 54 NNW 1016,2 30
10.12.2019 20:00:00 8,1 -2,7 - 50 27 104 56 N 1016,1 30
10.12.2019 19:00:00 8,8 -1,6 - 36 19 - - N 1015,3 30
10.12.2019 18:00:00 9,8 -1,2 - 32 18 - - N 1014,5 -
10.12.2019 17:00:00 10,6 -1,7 - 36 19 - - N 1014,0 -
10.12.2019 16:00:00 10,8 -0,9 - 29 16 - - N 1013,3 -
10.12.2019 15:00:00 12,2 -0,6 - 29 16 - - NNW 1012,1 -
10.12.2019 14:00:00 12,2 0,4 15,5 40 21 86 47 N 1011,3 45
10.12.2019 13:00:00 11,9 1,6 - 32 18 - - NNW 1011,3 45
10.12.2019 12:00:00 11,7 1,4 - 29 16 76 41 NNW 1011,5 45
10.12.2019 11:00:00 11,6 0,4 - 40 21 72 39 N 1011,0 40
10.12.2019 10:00:00 11,6 0,7 - 36 19 - - N 1010,2 45
10.12.2019 09:00:00 11,4 1,5 - 25 14 - - N 1009,4 40
10.12.2019 08:00:00 9,7 1,9 - 22 12 - - NNW 1008,9 40
10.12.2019 07:00:00 8,9 3,2 15,0 22 12 - - NNW 1008,1 35
10.12.2019 06:00:00 8,8 4,2 - 29 16 - - NNW 1007,6 25
10.12.2019 05:00:00 8,8 4,0 - 25 14 - - N 1007,0 25
10.12.2019 04:00:00 8,8 5,4 - 18 10 - - N 1006,7 25
10.12.2019 03:00:00 - - - - - - - - - -
10.12.2019 02:00:00 - - - - - - - - - -
10.12.2019 01:00:00 10,1 6,5 - 25 14 - - NNE 1006,7 -
10.12.2019 00:00:00 - - - - - - - - - -
09.12.2019 23:00:00 - - - - - - - - - -
09.12.2019 22:00:00 11,2 7,0 - 32 18 - - WNW 1007,3 -
09.12.2019 21:00:00 13,3 9,5 - 7 4 - - E 1006,4 30
09.12.2019 20:00:00 13,5 9,5 - 11 6 - - E 1006,1 30
09.12.2019 19:00:00 13,8 9,5 - 11 6 - - E 1006,4 25

tt = temperature
td = dewpoint
tw = water temperature
ff = wind speed
fx = gusts
dd = wind direction
ppp = reduced air pressure
vv = visibility

Next stations